[[{"header":{"parameterUnit":"m.s-1","parameterCategory":1,"la1":30.2991,"la2":30.254,"lo1":-89.0895,"lo2":-89.0444,"dy":0.0017,"dx":0.0017,"nx":28,"ny":28,"refTime":"2024-05-21T21:00:00:Z","depth":0,"parameterNumber":2,"parameterNumberName":"U-component_of_WINDS"},"data":[0,0,0,0,0,0,0,0,0,0,0,0,0,0,0,0,0,0,0,0,0,0,0,0,0,0,0,0,0,0,0,0,0,0,0,0,0,0,0,0,0,0,0,0,0,0,0,0,0,0,0,0,0,0,0,0,0,0,-1.9289,-1.9289,0,-1.9265,-1.9264,-1.9264,-1.9244,-1.9244,-1.9244,-1.9244,-1.9217,-1.9216,-1.9216,0,0,0,0,0,0,0,0,0,0,0,0,0,-1.9318,-1.9317,-1.9289,-1.9289,-1.9288,-1.9265,-1.9264,-1.9264,-1.9244,-1.9244,-1.9244,-1.9244,-1.9217,-1.9216,-1.9216,0,0,0,0,0,0,0,0,0,0,0,0,0,-1.9301,-1.9317,-1.9289,-1.9276,-1.9274,-1.9265,-1.9264,-1.9264,-1.9244,-1.9244,-1.9244,-1.9244,-1.9217,-1.9216,-1.9216,-1.9216,0,0,-1.9213,-1.9213,0,0,0,0,0,0,0,0,-1.9302,-1.9299,-1.9278,-1.9277,-1.9275,-1.9257,-1.9265,-1.9248,-1.9245,-1.9256,-1.9244,-1.9243,-1.923,-1.9228,-1.9224,-1.9215,-1.9214,-1.9213,-1.9213,-1.9212,-1.9212,0,0,0,0,0,0,0,-1.9303,-1.93,-1.9279,-1.9278,-1.9276,-1.9271,-1.9268,-1.9261,-1.9245,-1.9255,-1.9253,-1.9251,-1.9229,-1.9225,-1.9224,-1.9214,-1.9213,-1.9212,-1.9212,-1.9212,-1.9205,-1.9205,0,0,0,0,0,0,-1.9306,-1.9302,-1.928,-1.9279,-1.9288,-1.9271,-1.9267,-1.9263,-1.9245,-1.9242,-1.9251,-1.925,-1.9227,-1.9225,-1.9223,-1.9223,-1.9212,-1.9211,-1.9211,-1.9205,-1.9205,-1.9205,0,0,0,0,0,0,-1.9307,-1.9304,-1.9281,-1.929,-1.9286,-1.927,-1.9266,-1.9263,-1.9259,-1.9242,-1.9239,-1.925,-1.9227,-1.9224,-1.9219,-1.9222,-1.9211,-1.921,-1.9204,-1.9205,-1.9205,-1.9223,0,0,0,0,0,0,-1.9308,-1.9305,-1.9305,-1.929,-1.9286,-1.9278,-1.9266,-1.9263,-1.9258,-1.9256,-1.924,-1.9237,-1.9226,-1.922,-1.9218,-1.922,-1.921,-1.9204,-1.9205,-1.9205,-1.9222,-1.9224,-1.9226,0,0,0,0,0,-1.9309,-1.931,-1.9305,-1.9303,-1.9286,-1.9278,-1.9275,-1.9263,-1.9258,-1.9258,-1.9248,-1.9238,-1.9222,-1.922,-1.9217,-1.9219,-1.9204,-1.9204,-1.9205,-1.9221,-1.9224,-1.9226,0,0,0,0,0,0,-1.9325,-1.9308,-1.9302,-1.9299,-1.929,-1.9275,-1.9274,-1.9266,-1.9258,-1.9256,-1.9241,-1.9238,-1.9234,-1.9226,-1.9224,-1.922,-1.9212,-1.9212,-1.9225,-1.9227,-1.9229,-1.923,-1.9209,0,0,0,0,0,-1.9329,-1.9324,-1.9309,-1.9308,-1.9304,-1.929,-1.9286,-1.9277,-1.9267,-1.9263,-1.9252,-1.9243,-1.9236,-1.9231,-1.9223,-1.9222,-1.9218,-1.9222,-1.9224,-1.9226,-1.9226,-1.9225,-1.9227,-1.9208,-1.9208,-1.9208,0,0,-1.9335,-1.9325,-1.9323,-1.9311,-1.9303,-1.9298,-1.9287,-1.9282,-1.9278,-1.9262,-1.9257,-1.9249,-1.9237,-1.9234,-1.9232,-1.9227,-1.923,-1.9226,-1.9228,-1.9227,-1.9226,-1.9227,-1.9229,-1.9208,-1.9208,-1.9208,0,0,-1.9345,-1.9337,-1.9335,-1.9328,-1.9317,-1.9308,-1.9308,-1.9294,-1.9288,-1.9283,-1.9271,-1.9266,-1.9254,-1.9247,-1.9241,-1.925,-1.9241,-1.9248,-1.9257,-1.9257,-1.9258,-1.9259,-1.9263,-1.9264,-1.9248,-1.9248,-1.9249,0,-1.9354,-1.9346,-1.9335,-1.9331,-1.9326,-1.9313,-1.9311,-1.9305,-1.9291,-1.9288,-1.9284,-1.9269,-1.926,-1.9255,-1.9258,-1.9254,-1.9253,-1.9249,-1.9259,-1.926,-1.9261,-1.9264,-1.9265,-1.9249,-1.9249,-1.9249,-1.9249,0,-1.9359,-1.9354,-1.9354,-1.9343,-1.9338,-1.9335,-1.9323,-1.9319,-1.9312,-1.9304,-1.9299,-1.9288,-1.9279,-1.9277,-1.9269,-1.9271,-1.9269,-1.9262,-1.9253,-1.9264,-1.9266,-1.9267,-1.9251,-1.925,-1.925,-1.925,0,0,-1.9376,-1.936,-1.936,-1.9355,-1.9343,-1.9338,-1.9336,-1.9327,-1.9325,-1.9317,-1.9314,-1.9305,-1.9299,-1.9293,-1.9284,-1.9284,-1.9292,-1.9277,-1.9276,-1.928,-1.9294,-1.9299,-1.93,-1.9286,-1.9286,-1.9287,-1.9295,0,-1.9383,-1.9377,-1.9368,-1.9365,-1.9361,-1.9349,-1.9347,-1.9339,-1.9331,-1.9327,-1.9318,-1.9312,-1.9305,-1.9301,-1.93,-1.9291,-1.9294,-1.929,-1.9283,-1.9283,-1.9286,-1.9302,-1.9307,-1.9315,-1.9296,-1.9296,-1.9296,0,-1.939,-1.9384,-1.9381,-1.937,-1.9368,-1.9366,-1.9358,-1.9354,-1.9345,-1.934,-1.9334,-1.9325,-1.9322,-1.9315,-1.931,-1.9307,-1.9304,-1.9299,-1.9299,-1.9297,-1.929,-1.93,-1.9317,-1.9318,-1.9298,-1.9297,-1.9297,0,-1.9404,-1.9394,-1.9392,-1.9388,-1.9375,-1.9374,-1.9368,-1.9359,-1.9355,-1.9349,-1.9346,-1.9339,-1.9335,-1.9329,-1.9319,-1.9315,-1.9315,-1.9307,-1.9311,-1.9311,-1.931,-1.931,-1.9327,-1.9309,-1.9309,-1.9309,-1.9309,0,-1.9412,-1.9411,-1.9397,-1.9396,-1.9394,-1.9383,-1.9382,-1.9375,-1.9368,-1.9365,-1.9354,-1.9351,-1.9338,-1.9334,-1.9326,-1.9323,-1.9321,-1.9317,-1.9315,-1.9317,-1.9318,-1.9314,-1.9313,-1.931,-1.9309,-1.9309,-1.9309,0,-1.9426,-1.9417,-1.9413,-1.9402,-1.9399,-1.9399,-1.9389,-1.9387,-1.938,-1.9376,-1.9374,-1.9363,-1.9357,-1.9347,-1.9338,-1.9333,-1.9332,-1.9328,-1.9335,-1.9333,-1.9337,-1.9337,-1.9352,-1.9353,-1.9335,-1.9335,-1.9336,0,-1.9432,-1.9431,-1.942,-1.9418,-1.9413,-1.9409,-1.9405,-1.9395,-1.9391,-1.9382,-1.9381,-1.9375,-1.937,-1.9362,-1.9353,-1.9346,-1.9342,-1.9348,-1.9341,-1.9344,-1.9342,-1.9342,-1.9342,-1.9349,-1.9349,-1.9349,-1.935,0,-1.9444,-1.944,-1.9435,-1.9429,-1.9425,-1.942,-1.9414,-1.9412,-1.9401,-1.9397,-1.9392,-1.9388,-1.938,-1.9375,-1.9367,-1.9362,-1.9354,-1.9352,-1.9353,-1.9355,-1.9359,-1.9357,-1.9339,-1.9352,-1.9351,-1.9351,-1.9351,-1.9351,-1.9453,-1.9452,-1.9445,-1.944,-1.9435,-1.943,-1.9428,-1.9421,-1.9417,-1.941,-1.9404,-1.9399,-1.9392,-1.9381,-1.9376,-1.9373,-1.9369,-1.9369,-1.9369,-1.937,-1.9371,-1.936,-1.9371,-1.9371,-1.9371,-1.9371,-1.9371,0,-1.9465,-1.9459,-1.9455,-1.9448,-1.9445,-1.9439,-1.9432,-1.943,-1.9426,-1.942,-1.9415,-1.941,-1.9405,-1.9396,-1.939,-1.9389,-1.9385,-1.9387,-1.9387,-1.9386,-1.9375,-1.9375,-1.9391,-1.9391,-1.9391,-1.939,-1.939,-1.939,-1.947,-1.9468,-1.9463,-1.9458,-1.9453,-1.9449,-1.9446,-1.9441,-1.9437,-1.9431,-1.9427,-1.9422,-1.9414,-1.9408,-1.9403,-1.9401,-1.9399,-1.9403,-1.9399,-1.9388,-1.9387,-1.9385,-1.9385,-1.9402,-1.9403,-1.9411,-1.9411,-1.9411]},{"header":{"parameterUnit":"m.s-1","parameterCategory":1,"la1":30.2991,"la2":30.254,"lo1":-89.0895,"lo2":-89.0444,"dy":0.0017,"dx":0.0017,"nx":28,"ny":28,"refTime":"2024-05-21T21:00:00:Z","depth":0,"parameterNumber":3,"parameterNumberName":"V-component_of_WINDS"},"data":[0,0,0,0,0,0,0,0,0,0,0,0,0,0,0,0,0,0,0,0,0,0,0,0,0,0,0,0,0,0,0,0,0,0,0,0,0,0,0,0,0,0,0,0,0,0,0,0,0,0,0,0,0,0,0,0,0,0,3.8422,3.8422,0,3.8452,3.8452,3.8452,3.8492,3.8492,3.8493,3.8494,3.8521,3.8521,3.8521,0,0,0,0,0,0,0,0,0,0,0,0,0,3.8396,3.8396,3.8422,3.8422,3.8422,3.8452,3.8452,3.8452,3.8492,3.8492,3.8493,3.8494,3.8521,3.8521,3.8521,0,0,0,0,0,0,0,0,0,0,0,0,0,3.8415,3.8397,3.8422,3.8446,3.8448,3.8452,3.8452,3.8453,3.8491,3.8492,3.8493,3.8494,3.8521,3.8521,3.8521,3.8503,0,0,3.8522,3.8522,0,0,0,0,0,0,0,0,3.8414,3.8416,3.8442,3.8444,3.8447,3.8469,3.8453,3.8469,3.8491,3.8475,3.8494,3.8495,3.8503,3.8504,3.8508,3.8504,3.8505,3.8522,3.8522,3.8522,3.8522,0,0,0,0,0,0,0,3.8412,3.8414,3.8433,3.8442,3.8445,3.8454,3.8458,3.8456,3.8483,3.8476,3.8479,3.8482,3.8504,3.8508,3.8509,3.8506,3.8522,3.8522,3.8522,3.8522,3.8488,3.8487,0,0,0,0,0,0,3.8408,3.8413,3.8433,3.8434,3.8432,3.8454,3.8458,3.8461,3.8483,3.8487,3.8482,3.8484,3.8507,3.8508,3.851,3.849,3.8522,3.8522,3.8522,3.8489,3.8488,3.8487,0,0,0,0,0,0,3.8407,3.8409,3.8431,3.8425,3.8428,3.8453,3.8456,3.8461,3.8464,3.8487,3.8492,3.848,3.8508,3.851,3.8505,3.8491,3.8522,3.8523,3.8491,3.8489,3.8488,3.8449,0,0,0,0,0,0,3.8406,3.8409,3.8402,3.8424,3.8428,3.8426,3.8455,3.8461,3.8465,3.8468,3.8487,3.8491,3.8509,3.8504,3.8505,3.8492,3.8523,3.8492,3.849,3.8488,3.8451,3.8446,3.8442,0,0,0,0,0,3.8405,3.8389,3.8402,3.8404,3.8421,3.8425,3.8427,3.8449,3.8464,3.8457,3.8472,3.849,3.8493,3.8503,3.8504,3.8491,3.8493,3.849,3.8488,3.8454,3.8447,3.8442,0,0,0,0,0,0,3.8364,3.8393,3.8407,3.8398,3.8409,3.8432,3.8424,3.8442,3.8448,3.8451,3.8477,3.848,3.8472,3.8481,3.8492,3.8475,3.8495,3.8493,3.8469,3.8463,3.8458,3.8456,3.8523,0,0,0,0,0,3.8354,3.8356,3.8381,3.837,3.8375,3.8399,3.8401,3.8417,3.8429,3.8434,3.8448,3.8458,3.8462,3.8463,3.8467,3.8453,3.8458,3.8445,3.844,3.8436,3.8434,3.8427,3.8422,3.848,3.848,3.848,0,0,3.8333,3.8349,3.8348,3.8363,3.8373,3.8374,3.8402,3.8402,3.8402,3.8433,3.843,3.8441,3.8454,3.8444,3.8441,3.8452,3.8419,3.8433,3.843,3.843,3.8424,3.8419,3.8414,3.8478,3.8478,3.8479,0,0,3.8295,3.8308,3.8301,3.8311,3.8327,3.8343,3.8341,3.8362,3.8371,3.8368,3.8391,3.8392,3.8397,3.8405,3.841,3.8377,3.8394,3.8377,3.8352,3.8345,3.834,3.8336,3.8324,3.8319,3.8375,3.8375,3.8375,0,3.8267,3.827,3.8295,3.8293,3.8298,3.8328,3.8321,3.8329,3.8345,3.8348,3.836,3.8368,3.8378,3.8371,3.8363,3.8366,3.8365,3.8375,3.8339,3.8335,3.8332,3.8321,3.8316,3.8373,3.8373,3.8373,3.8373,0,3.8234,3.8236,3.8228,3.8244,3.8249,3.8244,3.8268,3.8269,3.8285,3.8299,3.8296,3.831,3.8318,3.8317,3.8332,3.8312,3.8319,3.8335,3.8356,3.8324,3.8314,3.8309,3.837,3.837,3.8371,3.8371,0,0,3.817,3.8201,3.8198,3.8206,3.8226,3.8227,3.8224,3.8233,3.8233,3.8243,3.8241,3.8245,3.826,3.8266,3.8282,3.8276,3.8248,3.8293,3.8293,3.8284,3.8227,3.8214,3.8209,3.826,3.8259,3.8259,3.8226,0,3.8136,3.8133,3.8156,3.8146,3.8148,3.8177,3.8174,3.8185,3.8199,3.8201,3.8216,3.8218,3.8239,3.8242,3.8238,3.8252,3.8237,3.8255,3.8257,3.8257,3.8252,3.8204,3.819,3.8158,3.8222,3.8221,3.8221,0,3.8095,3.8105,3.8096,3.8117,3.8119,3.8116,3.8126,3.8128,3.8142,3.8152,3.8159,3.8178,3.8175,3.8196,3.8193,3.8204,3.8207,3.8214,3.8213,3.8214,3.8236,3.8202,3.8149,3.8144,3.8215,3.8215,3.8216,0,3.8049,3.8059,3.8056,3.8061,3.8086,3.8084,3.8094,3.8109,3.8113,3.8121,3.8124,3.8131,3.8135,3.814,3.816,3.8174,3.8154,3.8177,3.8162,3.8161,3.8156,3.8156,3.8102,3.8158,3.8158,3.8158,3.8158,0,3.8008,3.8001,3.8035,3.8033,3.8026,3.8052,3.8044,3.8057,3.807,3.807,3.8095,3.8094,3.8122,3.8123,3.8139,3.8134,3.8135,3.8143,3.8147,3.814,3.8139,3.8142,3.8144,3.8157,3.8157,3.8158,3.8158,0,3.7955,3.7978,3.7975,3.8,3.8006,3.8,3.802,3.8018,3.8034,3.8033,3.8035,3.8059,3.8062,3.8083,3.8091,3.8102,3.809,3.8099,3.8086,3.8089,3.8072,3.8073,3.8017,3.8011,3.8072,3.8071,3.8071,0,3.7927,3.7923,3.7947,3.795,3.7959,3.7962,3.7967,3.7993,3.7996,3.8012,3.8008,3.8014,3.802,3.8024,3.8042,3.8048,3.8057,3.8037,3.8058,3.8051,3.8056,3.8056,3.8055,3.8032,3.8031,3.803,3.803,0,3.7875,3.7886,3.7893,3.7903,3.7908,3.7917,3.7928,3.7928,3.7956,3.7959,3.7964,3.7969,3.7978,3.7983,3.7992,3.8002,3.802,3.8023,3.802,3.8013,3.8006,3.8009,3.8073,3.8024,3.8025,3.8025,3.8026,3.8026,3.7833,3.7831,3.7848,3.7854,3.7865,3.7875,3.7875,3.7891,3.7896,3.7906,3.792,3.7923,3.7937,3.7952,3.796,3.7962,3.7972,3.7968,3.7966,3.7965,3.7961,3.8006,3.7963,3.7964,3.7964,3.7964,3.7964,0,3.7782,3.7795,3.7801,3.7815,3.782,3.7839,3.7851,3.7854,3.7856,3.7868,3.7875,3.788,3.7885,3.7904,3.7911,3.7909,3.7917,3.791,3.791,3.7912,3.7951,3.7953,3.7903,3.7903,3.7903,3.7903,3.7903,3.7903,3.7756,3.7753,3.7767,3.777,3.7783,3.7787,3.7792,3.7801,3.7811,3.7816,3.7821,3.7834,3.7848,3.7857,3.7862,3.7868,3.7869,3.7858,3.7866,3.7903,3.7909,3.7914,3.7916,3.7858,3.7858,3.7826,3.7826,3.7825]}]]